Content
SEND FEEDBACK

Daily
Averages
Monthly
Summary
United States of America

UMATAC, GUAM


Home > North America > United States > Guam
Elevation: 58 meters     Latitude: 13 17N     Longitude: 144 40E

WEATHER
 
SELECT A DAY
Number of Records: 342,166;   Date Range: 1/1/95 - 8/12/14
 
SHARE

PRINT THIS DATA

[ ← Previous Day ]
WEATHER ALMANAC - 30 APRIL, 2013
[ Next Day → ]
[ °F ]   °C
Weather ElementAverageHighLow
Temperature27.1 °C30 °C (11:14 am)25 °C (9:38 pm)
Dewpoint23.9 °C25 °C (7:50 am)23 °C (12:33 am)
Humidity83.4 %94 % (9:41 pm)70 % (11:14 am)
Barometer1010.8 hPa1012.9 hPa (12:08 am)1009.1 hPa (3:55 pm)
Wind Speed17.1 km/h33.3 km/h (9:33 pm)
Wind Gust42.6 km/h (9:33 pm)
Weather ElementAverage
Visibility15.4 km
Wind DirectionENE (82.1 °)

Weather ElementTotal
Precipitation4.83 mm
Cooling Degree Days9.2 (Base 18.3)
Growing Degree Days17.5 (Base 10)
Averaged from 122 records on 30 April, 2013
WEATHER CONDITIONS BREAKOUT
WIND DIRECTION BREAKOUT
WEATHER BY HOUR - 30 APRIL, 2013
[ °F ]   °C
Local TimeTemperatureDewpointHumidityBarometerVisibilityWind DirectionWind SpeedGust SpeedPrecipitationEventsConditions
12:08 AM26 °C24 °C89 %1012.9 hPa16.1 kmEast (80°)11.1 km/hMostly Cloudy
12:14 AM26 °C24 °C89 %1012.9 hPa16.1 kmCalmMostly Cloudy
12:15 AM26 °C24 °C89 %1012.9 hPa16.1 kmENE (70°)9.3 km/hMostly Cloudy
12:19 AM26 °C24 °C89 %1012.9 hPa16.1 kmENE (70°)13 km/hMostly Cloudy
12:23 AM26 °C24 °C89 %1012.9 hPa16.1 kmENE (70°)11.1 km/hMostly Cloudy
12:33 AM26 °C23 °C83 %1012.9 hPa16.1 kmENE (70°)11.1 km/hMostly Cloudy
12:34 AM26 °C23 °C83 %1012.9 hPa16.1 kmENE (70°)9.3 km/hScattered Clouds
12:55 AM25.9 °C23.6 °C87 %1012.5 hPa16.1 kmCalmPartly Cloudy
1:13 AM26 °C23 °C83 %1012.5 hPa16.1 kmENE (70°)11.1 km/hMostly Cloudy
1:18 AM26 °C23 °C83 %1012.2 hPa16.1 kmENE (60°)11.1 km/hScattered Clouds
1:19 AM26 °C23 °C83 %1012.2 hPa16.1 kmENE (60°)11.1 km/hMostly Cloudy
1:20 AM26 °C23 °C83 %1012.2 hPa16.1 kmENE (60°)11.1 km/hScattered Clouds
1:55 AM25.5 °C23.4 °C88 %1011.9 hPa16.1 kmENE (70°)11.1 km/hPartly Cloudy
2:55 AM25.4 °C23.5 °C89 %1011.2 hPa16.1 kmCalmPartly Cloudy
3:55 AM25.4 °C23.5 °C89 %1010.8 hPa16.1 kmCalmPartly Cloudy
4:49 AM26 °C24 °C89 %1010.8 hPa14.5 kmCalmLight Drizzle
4:55 AM25.8 °C24 °C90 %1010.8 hPa14.5 kmENE (60°)14.8 km/h0 mmLight Drizzle
4:59 AM26 °C24 °C89 %1011.2 hPa16.1 kmENE (60°)14.8 km/hScattered Clouds
5:06 AM26 °C24 °C89 %1010.8 hPa16.1 kmENE (60°)13 km/hMostly Cloudy
5:07 AM26 °C24 °C89 %1010.8 hPa16.1 kmENE (60°)13 km/hScattered Clouds
5:09 AM26 °C24 °C89 %1010.8 hPa16.1 kmENE (60°)13 km/hMostly Cloudy
5:12 AM26 °C24 °C89 %1010.8 hPa16.1 kmENE (60°)11.1 km/hScattered Clouds
5:55 AM25.6 °C23.5 °C88 %1011.2 hPa16.1 kmENE (60°)14.8 km/h0 mmScattered Clouds
6:09 AM26 °C24 °C89 %1011.2 hPa16.1 kmENE (70°)13 km/hMostly Cloudy
6:15 AM26 °C24 °C89 %1011.2 hPa16.1 kmENE (70°)22.2 km/hScattered Clouds
6:55 AM26.3 °C23.9 °C87 %1011.5 hPa16.1 kmEast (80°)14.8 km/hPartly Cloudy
7:09 AM26 °C24 °C89 %1011.5 hPa16.1 kmEast (80°)14.8 km/hMostly Cloudy
7:27 AM26 °C24 °C89 %1011.5 hPa16.1 kmEast (80°)18.5 km/hRainLight Rain
7:38 AM26 °C24 °C89 %1011.5 hPa16.1 kmEast (80°)13 km/hMostly Cloudy
7:50 AM27 °C25 °C89 %1011.9 hPa16.1 kmEast (90°)24.1 km/hMostly Cloudy
7:51 AM27 °C24 °C84 %1011.5 hPa16.1 kmEast (90°)22.2 km/h29.6 km/hMostly Cloudy
7:53 AM27 °C24 °C84 %1011.5 hPa16.1 kmEast (80°)25.9 km/hScattered Clouds
7:55 AM26.9 °C24.3 °C86 %1011.5 hPa16.1 kmEast (80°)24.1 km/h0 mmScattered Clouds
8:21 AM27 °C24 °C84 %1011.9 hPa16.1 kmEast (90°)18.5 km/hMostly Cloudy
8:25 AM28 °C24 °C79 %1011.9 hPa16.1 kmENE (70°)20.4 km/hScattered Clouds
8:37 AM28 °C24 °C79 %1011.9 hPa16.1 kmEast (80°)24.1 km/hMostly Cloudy
8:39 AM28 °C24 °C79 %1011.9 hPa16.1 kmEast (80°)22.2 km/hMostly Cloudy
8:46 AM28 °C24 °C79 %1011.9 hPa16.1 kmEast (80°)20.4 km/hMostly Cloudy
8:53 AM29 °C24 °C74 %1011.9 hPa16.1 kmEast (90°)24.1 km/hMostly Cloudy
8:54 AM29 °C24 °C74 %1011.9 hPa16.1 kmEast (90°)24.1 km/hMostly Cloudy
8:55 AM28.6 °C24 °C76 %1011.9 hPa16.1 kmEast (90°)25.9 km/hMostly Cloudy
9:29 AM29 °C24 °C74 %1011.9 hPa16.1 kmEast (90°)25.9 km/h33.3 km/hMostly Cloudy
9:30 AM29 °C24 °C74 %1011.9 hPa16.1 kmEast (80°)24.1 km/h33.3 km/hMostly Cloudy
9:32 AM29 °C24 °C74 %1011.9 hPa16.1 kmEast (90°)24.1 km/hMostly Cloudy
9:52 AM29 °C24 °C74 %1011.9 hPa16.1 kmEast (90°)25.9 km/hScattered Clouds
9:55 AM29.3 °C24.1 °C73 %1011.5 hPa16.1 kmEast (90°)20.4 km/hScattered Clouds
10:55 AM29.6 °C24.2 °C73 %1011.2 hPa16.1 kmEast (80°)27.8 km/hScattered Clouds
11:02 AM29 °C24 °C74 %1011.2 hPa16.1 kmEast (80°)27.8 km/hMostly Cloudy
11:14 AM30 °C24 °C70 %1011.2 hPa16.1 kmEast (90°)27.8 km/hMostly Cloudy
11:41 AM30 °C24 °C70 %1010.8 hPa16.1 kmEast (80°)22.2 km/hScattered Clouds
11:55 AM29.9 °C23.9 °C70 %1010.8 hPa16.1 kmESE (110°)24.1 km/hMostly Cloudy
12:55 PM29.1 °C23.9 °C73 %1010.5 hPa16.1 kmEast (90°)22.2 km/hMostly Cloudy
1:04 PM29 °C24 °C74 %1010.5 hPa16.1 kmEast (90°)22.2 km/hMostly Cloudy
1:11 PM29 °C24 °C74 %1010.2 hPa16.1 kmEast (100°)20.4 km/hMostly Cloudy
1:21 PM29 °C24 °C74 %1009.8 hPa16.1 kmESE (110°)20.4 km/hMostly Cloudy
1:33 PM28 °C24 °C79 %1009.8 hPa16.1 kmEast (80°)20.4 km/hMostly Cloudy
1:38 PM28 °C24 °C79 %1009.8 hPa16.1 kmEast (80°)18.5 km/hMostly Cloudy
1:43 PM28 °C24 °C79 %1009.8 hPa16.1 kmEast (90°)20.4 km/hMostly Cloudy
1:47 PM29 °C24 °C74 %1009.8 hPa16.1 kmEast (80°)22.2 km/hMostly Cloudy
1:55 PM28.8 °C23.9 °C75 %1009.8 hPa16.1 kmEast (90°)20.4 km/hMostly Cloudy
1:58 PM29 °C24 °C74 %1009.5 hPa16.1 kmEast (90°)22.2 km/hMostly Cloudy
2:44 PM29 °C24 °C74 %1009.5 hPa16.1 kmEast (80°)18.5 km/hMostly Cloudy
2:46 PM29 °C24 °C74 %1009.5 hPa16.1 kmENE (70°)20.4 km/hScattered Clouds
2:49 PM29 °C24 °C74 %1009.5 hPa16.1 kmEast (90°)20.4 km/hMostly Cloudy
2:50 PM29 °C24 °C74 %1009.5 hPa16.1 kmEast (100°)18.5 km/hMostly Cloudy
2:52 PM29 °C24 °C74 %1009.5 hPa16.1 kmEast (90°)18.5 km/hScattered Clouds
2:55 PM28.9 °C24.3 °C76 %1009.5 hPa16.1 kmEast (80°)18.5 km/hScattered Clouds
3:04 PM29 °C24 °C74 %1009.5 hPa16.1 kmEast (90°)18.5 km/hMostly Cloudy
3:10 PM29 °C24 °C74 %1009.5 hPa16.1 kmEast (90°)18.5 km/hScattered Clouds
3:24 PM29 °C24 °C74 %1009.5 hPa16.1 kmEast (80°)18.5 km/hMostly Cloudy
3:36 PM29 °C24 °C74 %1009.5 hPa16.1 kmEast (90°)18.5 km/hScattered Clouds
3:44 PM29 °C24 °C74 %1009.5 hPa16.1 kmENE (70°)18.5 km/hMostly Cloudy
3:55 PM28.3 °C23.9 °C77 %1009.1 hPa16.1 kmENE (70°)20.4 km/hMostly Cloudy
3:58 PM28 °C24 °C79 %1009.1 hPa16.1 kmENE (70°)20.4 km/hScattered Clouds
4:55 PM27.9 °C24 °C79 %1009.1 hPa16.1 kmEast (90°)16.7 km/hScattered Clouds
4:57 PM28 °C24 °C79 %1009.1 hPa16.1 kmEast (100°)16.7 km/hMostly Cloudy
5:02 PM28 °C24 °C79 %1009.1 hPa16.1 kmEast (90°)14.8 km/hScattered Clouds
5:06 PM28 °C24 °C79 %1009.1 hPa16.1 kmEast (100°)11.1 km/hMostly Cloudy
5:11 PM28 °C24 °C79 %1009.5 hPa12.9 kmEast (80°)22.2 km/h37 km/hRainLight Rain
5:14 PM27 °C24 °C84 %1009.5 hPa4 kmNE (50°)16.7 km/h37 km/hRainHeavy Rain
5:22 PM26 °C24 °C89 %1009.5 hPa4.8 kmEast (80°)18.5 km/hRainLight Rain
5:24 PM26 °C24 °C89 %1009.8 hPa11.3 kmEast (80°)14.8 km/hRainLight Rain
5:25 PM26 °C24 °C89 %1009.5 hPa14.5 kmEast (80°)16.7 km/hScattered Clouds
5:55 PM26.3 °C24.2 °C88 %1009.8 hPa16.1 kmENE (70°)14.8 km/h2.54 mmPartly Cloudy
6:55 PM26.3 °C24 °C87 %1010.2 hPa16.1 kmEast (90°)16.7 km/hScattered Clouds
7:01 PM26 °C24 °C89 %1010.5 hPa16.1 kmEast (80°)18.5 km/hMostly Cloudy
7:08 PM26 °C24 °C89 %1010.5 hPa16.1 kmEast (80°)14.8 km/hScattered Clouds
7:14 PM26 °C24 °C89 %1010.8 hPa16.1 kmEast (90°)16.7 km/hMostly Cloudy
7:16 PM26 °C24 °C89 %1010.5 hPa16.1 kmEast (80°)18.5 km/hScattered Clouds
7:55 PM26.4 °C23.9 °C86 %1010.8 hPa16.1 kmEast (100°)18.5 km/hScattered Clouds
8:17 PM26 °C24 °C89 %1010.8 hPa16.1 kmEast (100°)20.4 km/hMostly Cloudy
8:22 PM26 °C24 °C89 %1011.2 hPa16.1 kmEast (100°)16.7 km/hScattered Clouds
8:55 PM26.4 °C23.8 °C86 %1011.2 hPa16.1 kmEast (90°)18.5 km/hPartly Cloudy
9:11 PM26 °C24 °C89 %1011.2 hPa16.1 kmEast (100°)16.7 km/hMostly Cloudy
9:15 PM27 °C24 °C84 %1011.2 hPa16.1 kmEast (80°)18.5 km/hMostly Cloudy
9:33 PM26 °C24 °C89 %1011.2 hPa6.4 kmSE (130°)33.3 km/h42.6 km/hRainRain
9:38 PM25 °C23 °C89 %1011.5 hPa4.8 kmESE (120°)16.7 km/h42.6 km/hRainLight Rain
9:39 PM25 °C23 °C89 %1011.5 hPa4.8 kmESE (120°)16.7 km/h42.6 km/hRainLight Rain
9:41 PM25 °C24 °C94 %1011.5 hPa4.8 kmESE (110°)14.8 km/h42.6 km/hRainLight Rain
9:50 PM25 °C24 °C94 %1011.5 hPa12.9 kmEast (100°)14.8 km/hRainLight Rain
9:52 PM26 °C24 °C89 %1011.5 hPa16.1 kmEast (100°)14.8 km/hOvercast
9:53 PM26 °C24 °C89 %1011.5 hPa16.1 kmEast (100°)14.8 km/hOvercast
9:55 PM25.6 °C24.4 °C93 %1011.5 hPa16.1 kmESE (110°)16.7 km/h2.29 mmMostly Cloudy
10:09 PM26 °C24 °C89 %1011.5 hPa16.1 kmESE (110°)13 km/hScattered Clouds
10:23 PM26 °C24 °C89 %1011.5 hPa16.1 kmEast (100°)14.8 km/hMostly Cloudy
10:27 PM26 °C24 °C89 %1011.5 hPa16.1 kmESE (110°)14.8 km/hMostly Cloudy
10:30 PM26 °C24 °C89 %1011.5 hPa16.1 kmEast (100°)16.7 km/hMostly Cloudy
10:32 PM26 °C24 °C89 %1011.2 hPa16.1 kmESE (110°)14.8 km/hScattered Clouds
10:38 PM26 °C24 °C89 %1011.2 hPa16.1 kmESE (110°)14.8 km/hMostly Cloudy
10:40 PM26 °C24 °C89 %1011.2 hPa16.1 kmEast (100°)14.8 km/hMostly Cloudy
10:55 PM25.8 °C24.3 °C91 %1011.2 hPa16.1 kmESE (110°)16.7 km/hMostly Cloudy
10:58 PM26 °C24 °C89 %1011.2 hPa16.1 kmEast (100°)14.8 km/hScattered Clouds
11:00 PM26 °C24 °C89 %1011.2 hPa16.1 kmEast (100°)14.8 km/hMostly Cloudy
11:06 PM26 °C24 °C89 %1011.2 hPa16.1 kmEast (90°)11.1 km/hMostly Cloudy
11:22 PM26 °C24 °C89 %1011.2 hPa16.1 kmEast (90°)14.8 km/hMostly Cloudy
11:26 PM26 °C24 °C89 %1011.2 hPa16.1 kmEast (90°)18.5 km/hScattered Clouds
11:27 PM26 °C24 °C89 %1011.2 hPa16.1 kmEast (80°)18.5 km/hMostly Cloudy
11:28 PM26 °C24 °C89 %1011.2 hPa16.1 kmEast (80°)16.7 km/hScattered Clouds
11:29 PM26 °C24 °C89 %1011.2 hPa16.1 kmEast (80°)14.8 km/hMostly Cloudy
11:33 PM26 °C24 °C89 %1011.2 hPa16.1 kmEast (90°)11.1 km/hMostly Cloudy
11:41 PM26 °C24 °C89 %1011.2 hPa16.1 kmEast (90°)18.5 km/hScattered Clouds
11:55 PM25.9 °C24 °C89 %1010.8 hPa16.1 kmEast (90°)18.5 km/hScattered Clouds
Hourly data recorded from PGUA, located 0 kilometers away from Umatac, Guam







STORIES FROM OUR PARTNERS